Regional Weather Roundup
Issued by NWS Charleston, SC

Current Version | Previous Version | Text Only | Print | Product List | Glossary Off
Versions: 1 2 3 4 5 6 7 8 9 10 11 12 13 14 15 16 17 18 19 20 21 22 23 24 25 26 27 28 29 30 31 32 33 34 35 36 37 38 39 40 41 42 43 44 45 46 47 48 49 50

000
ASUS42 KCHS 240810
RWRCHS

REGIONAL WEATHER ROUNDUP
NATIONAL WEATHER SERVICE CHARLESTON SC
400 AM EDT FRI OCT 24 2014

NOTE: "FAIR" INDICATES FEW OR NO CLOUDS BELOW 12,000 FEET WITH NO
SIGNIFICANT WEATHER AND/OR OBSTRUCTIONS TO VISIBILITY.

NOT ALL STATIONS ARE QUALITY CONTROLLED BY THE NATIONAL
WEATHER SERVICE. USE DATA WITH CAUTION...ESPECIALLY
DEWPOINT OBSERVATIONS.

SCZ027-030-031-034>040-042>050-240900-
...SOUTH CAROLINA...

CITY           SKY/WX    TMP DP  RH WIND       PRES   REMARKS
N CHARLESTON   MOCLDY    50  45  83 CALM      30.01S
WATERFRONT PRK   N/A     57 N/A N/A NW3         N/A
FORT JOHNSON   NOT AVBL
JOHNS ISLAND   SUNNY     52  48  87 CALM      30.01S
PINOPOLIS      NOT AVBL
MONCKS CORNER  FAIR      48  48 100 CALM      30.01S
SUMMERVILLE    FAIR      45  45 100 CALM      30.02S
BEAUFORT MCAS  PTCLDY    50  47  89 CALM      30.01F
BEAUFORT ARPT  FAIR      54  52  94 CALM      30.01S
HILTON HEAD IS NOT AVBL
GEORGETOWN     NOT AVBL
WALTERBORO     PTSUNNY   45 N/A N/A CALM      30.02S
ORANGEBURG     MOCLDY    49  44  83 NE5       30.03R
BARNWELL       FAIR      45  43  93 CALM      30.02F
AIKEN          FAIR      46  45  93 CALM      30.05S
MANNING        FAIR      46 N/A N/A N3        30.02S
KINGSTREE      NOT AVBL
COLUMBIA       CLOUDY    52  46  80 CALM      30.03R
SUMTER         CLOUDY    50  45  80 NE7       30.01F
FLORENCE       MOCLDY    50  43  77 N6        30.02F
MYRTLE BEACH   PTCLDY    52  45  76 NW6       30.01S
N MYRTLE BEACH PTCLDY    50  45  83 NW5       30.00S

$$

GAZ063-065-086>088-099>101-113>116-118-119-134-136>141-150-240900-
...GEORGIA...

CITY           SKY/WX    TMP DP  RH WIND       PRES   REMARKS
SAVANNAH ARPT  PTCLDY    51  47  86 CALM      30.02S
HUNTER AAF     PTCLDY    48  47  95 W2        30.00S
FORT STEWART   PTCLDY    47  45  91 CALM      30.00F
STATESBORO     NOT AVBL
SYLVANIA       PTSUNNY   50  49  95 CALM      30.02F
CLAXTON        FAIR      45  45 100 CALM      30.02S
THOMSON        MOCLDY    46  46 100 CALM      30.07S
AUGUSTA-BUSH   MOCLDY    44  43  96 CALM      30.02F
AUGUSTA-DANIEL MOCLDY    54  48  80 N7        30.02F
SWAINSBORO     FAIR      50  48  93 MISG      30.02F
VIDALIA        MOCLDY    50  46  87 CALM      30.01F
ALMA           MOCLDY    47  46  97 CALM      30.02S
WAYCROSS       MOCLDY    51  50  97 CALM      30.02S
JESUP          FAIR      45  45 100 CALM      30.01F
BRUNSWICK        N/A     48  46  93 CALM      30.02F VSB 3/4
SAINT SIMONS   PTCLDY    52  52 100 CALM      30.01F

$$

SCZ027-028-034-036>038-045-046-048>050-GAZ119-141-240900-
...LAKE AND SUPPLEMENTAL COASTAL OBSERVATIONS...

STATION/POSITION TIME  TEMP    WIND        PRES    WAVE   SWELL
                       AIR SEA DIR/SP/G            HT/PER HT/PER/DIR
                 (UTC) (F)     (DEG/KT/KT) (MB)    (FT/S) (FT/S/D)
UPR LAKE MARION  NOT AVBL
WINYAH BAY       0700   52     310/  5     1016.0S
LAKE MURRAY      0700   53      30/  3/  5 1016.6S
ACE BASIN NERRS  0700   50        CALM     1016.0S
FORT PULASKI     0800   60     330/  3/  4 1016.3S
SAPELO ISLAND    NOT AVBL

$$

ANZ835-935-AMZ111-154-330-350-352-354-374-450-454-472-240900-
...C-MAN AND BUOY OBSERVATIONS...

STATION/POSITION TIME  TEMP    WIND        PRES    WAVE   SWELL
                       AIR SEA DIR/SP/G            HT/PER HT/PER/DIR
                 (UTC) (F)     (DEG/KT/KT) (MB)    (FT/S) (FT/S/D)
FOLLY BEACH CMAN 0700   55     320/  4/  5 1016.4F
BUOY 41004       0800   68 78  360/ 10/ 14 1015.2F   3/11   2/11
BUOY 41008       0800   69 75   20/  8/ 12 1016.0F   2/ 9   2/140/ 9
5E ST. MARYS GA  0800      75                N/A     2/ 8
FRYING PAN BUOY  0800   65 73  360/ 12/ 16 1015.5F   3/11   2/100/11
BUOY 41025       0800   64     320/ 21/ 27 1012.8F   4/ 5   2/ 20/ 8
CAPE LOOKOUT NC  0700   60     340/  7/  9 1014.2F
BUOY 41002       0712   72 78  310/ 12/ 16 1014.0    6/10   5/ 10/10
BUOY 41010       0800   74 81   30/ 10/ 12 1014.2F   3/ 8   3/ 40/ 8
BUOY 41012       NOT AVBL
ST AUGUSTINE FL  0800   69      40/ 10/ 11 1015.9F
CAPERS NEARSHORE NOT AVBL
FRIPP NEARSHORE  NOT AVBL


$$



USA.gov is the U.S. government's official web portal to all federal, state and local government web resources and services.